FW1466 Weather Reports


Display with metric or nautical units.
time (UTC)temp
F
wind
direction
speed
MPH
gust
MPH
rain 1hr
in
rain 24hr
in
rain mn
in
humidity
%
barometer
mb
20260507234554 57 319 0.0 3.0 0.00 0.05 0.05 63 1010.4
20260507233100 58 318 1.0 8.0 0.00 0.05 0.05 61 1010.6
20260507231553 57 326 0.0 6.0 0.01 0.05 0.05 66 1010.7
20260507230050 55 281 2.0 10.0 0.01 0.05 0.05 67 1010.6
20260507224556 53 329 0.0 3.0 0.01 0.05 0.05 81 1010.7
20260507223049 52 329 1.0 5.0 0.05 0.05 0.05 80 1011.0
20260507221549 53 327 1.0 5.0 0.04 0.04 0.04 77 1011.0
20260507220047 53 338 1.0 10.0 0.04 0.04 0.04 74 1010.8
20260507214545 59 135 1.0 11.0 0.03 0.03 0.03 64 1010.8
20260507213144 61 282 4.0 9.0 0.00 0.00 0.00 52 1010.4
20260507211546 61 259 2.0 12.0 0.00 0.00 0.00 56 1010.4
20260507210048 61 355 3.0 10.0 0.00 0.00 0.00 56 1010.6
20260507204545 62 217 2.0 7.0 0.00 0.00 0.00 56 1010.7
20260507203043 61 250 3.0 7.0 0.00 0.00 0.00 56 1010.9
20260507201538 60 261 3.0 9.0 0.00 0.00 0.00 57 1011.2
20260507200034 59 340 2.0 12.0 0.00 0.00 0.00 61 1011.4
20260507194554 58 309 3.0 12.0 0.00 0.00 0.00 61 1011.8
20260507193029 58 310 2.0 12.0 0.00 0.00 0.00 60 1012.2
20260507191532 58 255 4.0 12.0 0.00 0.00 0.00 62 1012.4
20260507190024 58 226 2.0 10.0 0.00 0.00 0.00 61 1012.6
20260507184533 58 159 3.0 12.0 0.00 0.00 0.00 62 1012.7
20260507183036 58 261 4.0 15.0 0.00 0.00 0.00 61 1012.8
20260507181519 58 269 3.0 9.0 0.00 0.00 0.00 55 1013.1
20260507180027 58 26 3.0 14.0 0.00 0.00 0.00 52 1013.1
20260507174516 58 321 2.0 9.0 0.00 0.00 0.00 50 1013.1
20260507173016 58 265 4.0 12.0 0.00 0.00 0.00 48 1013.4
20260507171528 58 155 2.0 8.0 0.00 0.00 0.00 49 1013.6
20260507170008 57 142 1.0 4.0 0.00 0.00 0.00 51 1014.1
20260507164506 57 260 2.0 7.0 0.00 0.00 0.00 46 1014.2
20260507163004 57 203 1.0 8.0 0.00 0.00 0.00 50 1014.4
20260507161502 56 213 2.0 7.0 0.00 0.00 0.00 49 1014.7
20260507160059 57 130 1.0 8.0 0.00 0.00 0.00 48 1015.0
20260507154556 56 140 1.0 5.0 0.00 0.00 0.00 50 1015.3
20260507153057 55 138 1.0 5.0 0.00 0.00 0.00 51 1015.4
20260507151547 54 168 2.0 5.0 0.00 0.00 0.00 50 1015.6
20260507150049 53 136 0.0 4.0 0.00 0.00 0.00 53 1015.6
20260507144545 53 157 3.0 7.0 0.00 0.00 0.00 52 1015.8
20260507143039 52 177 0.0 3.0 0.00 0.00 0.00 56 1016.1
20260507141533 51 99 0.0 3.0 0.00 0.00 0.00 55 1016.4
20260507140028 49 186 0.0 4.0 0.00 0.00 0.00 60 1016.4
20260507134526 48 150 1.0 6.0 0.00 0.00 0.00 60 1016.3
20260507133021 46 157 0.0 5.0 0.00 0.00 0.00 68 1016.4
20260507131527 45 265 0.0 0.0 0.00 0.00 0.00 70 1016.6
20260507130013 42 265 0.0 0.0 0.00 0.00 0.00 74 1016.8
20260507124515 40 266 0.0 0.0 0.00 0.00 0.00 88 1016.7
20260507123005 37 266 0.0 1.0 0.00 0.00 0.00 92 1016.7
20260507121502 34 266 0.0 0.0 0.00 0.00 0.00 94 1016.4
20260507120105 33 266 0.0 0.0 0.00 0.00 0.00 94 1016.3
20260507114612 32 266 0.0 0.0 0.00 0.00 0.00 93 1016.3
20260507113057 31 266 0.0 0.0 0.00 0.00 0.00 93 1016.2
20260507111558 30 266 0.0 0.0 0.00 0.00 0.00 92 1016.1
20260507110059 30 271 0.0 0.0 0.00 0.00 0.00 92 1016.1
20260507104551 30 271 0.0 0.0 0.00 0.00 0.00 91 1016.1
20260507103050 30 270 0.0 0.0 0.00 0.00 0.00 90 1016.2
20260507101557 31 270 0.0 0.0 0.00 0.00 0.00 90 1016.0
20260507100046 31 271 0.0 0.0 0.00 0.00 0.00 90 1016.2
20260507094551 32 271 0.0 0.0 0.00 0.00 0.00 90 1016.2
20260507093043 32 270 0.0 0.0 0.00 0.00 0.00 90 1016.2
20260507091546 32 271 0.0 0.0 0.00 0.00 0.00 89 1016.4
20260507090045 32 270 0.0 0.0 0.00 0.00 0.00 88 1016.3
20260507084542 32 271 0.0 0.0 0.00 0.00 0.00 87 1016.4
20260507083039 33 270 0.0 0.0 0.00 0.00 0.00 87 1016.3
20260507081638 33 270 0.0 0.0 0.00 0.00 0.00 88 1016.2
20260507080038 33 270 0.0 0.0 0.00 0.00 0.00 87 1016.2
20260507074535 33 271 0.0 0.0 0.00 0.00 0.00 87 1016.2
20260507073033 33 270 0.0 0.0 0.00 0.00 0.00 86 1016.3
20260507071535 34 270 0.0 0.0 0.00 0.00 0.00 86 1016.3
20260507070033 34 271 0.0 0.0 0.00 0.00 0.00 85 1016.4
20260507064537 34 271 0.0 0.0 0.00 0.00 0.00 84 1016.6
20260507063027 35 270 0.0 0.0 0.00 0.00 0.00 83 1016.6
20260507061532 35 270 0.0 0.0 0.00 0.00 0.00 83 1016.6
20260507060023 35 271 0.0 0.0 0.00 0.00 0.00 83 1016.7
20260507054522 36 271 0.0 0.0 0.00 0.00 0.00 82 1016.6
20260507053023 36 271 0.0 0.0 0.00 0.00 0.00 80 1016.7
20260507051518 36 270 0.0 0.0 0.00 0.00 0.00 79 1016.7
20260507050017 37 271 0.0 0.0 0.00 0.00 0.00 77 1016.7
20260507044516 37 271 0.0 0.0 0.00 0.00 0.00 76 1016.5
20260507043011 38 270 0.0 0.0 0.00 0.00 0.00 75 1016.5
20260507041511 39 271 0.0 0.0 0.00 0.00 0.00 74 1016.5
20260507040013 39 271 0.0 0.0 0.00 0.00 0.00 72 1016.6
20260507034511 39 270 0.0 0.0 0.00 0.00 0.00 70 1016.6
20260507033009 40 270 0.0 0.0 0.00 0.00 0.00 67 1016.7
20260507031508 41 270 0.0 0.0 0.00 0.00 0.00 65 1016.7
20260507030007 42 270 0.0 0.0 0.00 0.00 0.00 64 1016.5
20260507024506 42 270 0.0 0.0 0.00 0.00 0.00 63 1016.5
20260507023004 43 270 0.0 0.0 0.00 0.00 0.00 61 1016.3
20260507021502 44 270 0.0 0.0 0.00 0.00 0.00 59 1016.2
20260507020000 45 271 0.0 1.0 0.00 0.00 0.00 58 1015.9
20260507014600 46 271 0.0 3.0 0.00 0.00 0.00 56 1015.8
20260507013116 47 271 1.0 3.0 0.00 0.00 0.00 53 1015.6
20260507011559 48 270 1.0 4.0 0.00 0.00 0.00 52 1015.7
20260507010057 48 288 2.0 5.0 0.00 0.00 0.00 50 1015.7
20260507004558 49 328 4.0 11.0 0.00 0.00 0.00 49 1015.6
20260507003057 50 292 4.0 9.0 0.00 0.00 0.00 48 1015.4
20260507001610 50 338 4.0 12.0 0.00 0.00 0.00 47 1015.5
20260507000053 51 309 2.0 9.0 0.00 0.00 0.00 48 1015.2
20260506234559 52 304 3.0 12.0 0.00 0.00 0.00 48 1015.1